TimeMDT,TemperatureF,Dew PointF,Humidity,Sea Level PressureIn,VisibilityMPH,Wind Direction,Wind SpeedMPH,Gust SpeedMPH,PrecipitationIn,Events,Conditions,WindDirDegrees,DateUTC
12:15 AM,86.4,23.7,10,30.09,10.0,SE,6.9,-,N/A,,Clear,130,2013-06-28 06:15:00
12:35 AM,84.6,24.8,11,30.09,10.0,SE,8.1,-,N/A,,Clear,130,2013-06-28 06:35:00
12:55 AM,83.7,29.8,14,30.10,10.0,ESE,5.8,-,N/A,,Clear,120,2013-06-28 06:55:00
1:15 AM,82.4,34.2,18,30.11,10.0,SE,5.8,-,N/A,,Clear,130,2013-06-28 07:15:00
1:35 AM,81.5,34.9,19,30.11,10.0,SE,5.8,-,N/A,,Clear,140,2013-06-28 07:35:00
1:55 AM,81.7,34.7,18,30.11,10.0,SSE,6.9,-,N/A,,Clear,150,2013-06-28 07:55:00
2:15 AM,81.3,35.1,19,30.11,10.0,South,9.2,-,N/A,,Clear,170,2013-06-28 08:15:00
2:35 AM,81.1,35.6,19,30.10,10.0,South,9.2,-,N/A,,Clear,170,2013-06-28 08:35:00
2:55 AM,80.6,34.7,19,30.10,10.0,South,9.2,-,N/A,,Clear,180,2013-06-28 08:55:00
3:15 AM,79.9,34.9,20,30.10,10.0,South,9.2,-,N/A,,Clear,170,2013-06-28 09:15:00
3:35 AM,80.1,35.2,20,30.10,10.0,South,9.2,-,N/A,,Clear,180,2013-06-28 09:35:00
3:55 AM,79.7,35.1,20,30.11,10.0,SSE,6.9,-,N/A,,Clear,160,2013-06-28 09:55:00
4:15 AM,79.0,35.2,21,30.10,10.0,SSE,9.2,-,N/A,,Clear,150,2013-06-28 10:15:00
4:35 AM,77.0,35.1,22,30.11,10.0,SE,6.9,-,N/A,,Clear,130,2013-06-28 10:35:00
4:55 AM,77.4,35.2,22,30.11,10.0,SE,8.1,-,N/A,,Clear,140,2013-06-28 10:55:00
5:15 AM,77.9,36.1,22,30.11,10.0,SSE,8.1,-,N/A,,Clear,150,2013-06-28 11:15:00
5:35 AM,77.4,36.1,23,30.12,10.0,SE,6.9,-,N/A,,Clear,140,2013-06-28 11:35:00
5:55 AM,76.5,36.5,24,30.14,10.0,ESE,8.1,-,N/A,,Clear,120,2013-06-28 11:55:00
6:55 AM,79.2,39.9,25,30.18,10.0,SE,5.8,-,N/A,,Clear,140,2013-06-28 12:55:00
7:15 AM,80.2,40.6,24,30.20,10.0,East,5.8,-,N/A,,Clear,90,2013-06-28 13:15:00
7:35 AM,81.9,41.4,24,30.20,10.0,ESE,4.6,-,N/A,,Scattered Clouds,120,2013-06-28 13:35:00
7:55 AM,83.3,41.0,22,30.20,10.0,ESE,9.2,-,N/A,,Clear,120,2013-06-28 13:55:00
8:15 AM,84.0,40.1,21,30.21,10.0,SE,11.5,-,N/A,,Clear,130,2013-06-28 14:15:00
8:35 AM,84.9,38.1,19,30.22,10.0,ESE,11.5,16.1,N/A,,Clear,110,2013-06-28 14:35:00
8:55 AM,85.8,37.2,18,30.23,10.0,ESE,10.4,-,N/A,,Clear,110,2013-06-28 14:55:00
9:15 AM,86.0,39.7,19,30.23,10.0,East,8.1,-,N/A,,Clear,90,2013-06-28 15:15:00
9:35 AM,88.5,37.9,17,30.23,10.0,East,9.2,-,N/A,,Clear,90,2013-06-28 15:35:00
9:55 AM,88.9,37.2,16,30.23,10.0,East,12.7,17.3,N/A,,Clear,90,2013-06-28 15:55:00
10:15 AM,88.5,35.8,15,30.25,10.0,East,15.0,20.7,N/A,,Clear,100,2013-06-28 16:15:00
10:35 AM,91.2,34.5,13,30.26,10.0,ESE,17.3,24.2,N/A,,Clear,110,2013-06-28 16:35:00
10:55 AM,90.7,35.1,14,30.25,10.0,ESE,10.4,-,N/A,,Clear,120,2013-06-28 16:55:00
11:15 AM,93.7,34.0,12,30.25,10.0,East,10.4,-,N/A,,Clear,100,2013-06-28 17:15:00
11:35 AM,92.5,34.0,13,30.25,10.0,East,10.4,-,N/A,,Clear,100,2013-06-28 17:35:00
11:55 AM,92.3,34.0,13,30.24,10.0,East,12.7,-,N/A,,Clear,100,2013-06-28 17:55:00
12:15 PM,93.0,34.3,13,30.23,10.0,SE,10.4,-,N/A,,Clear,130,2013-06-28 18:15:00
12:35 PM,94.8,34.5,12,30.23,10.0,SE,13.8,-,N/A,,Clear,130,2013-06-28 18:35:00
12:55 PM,95.4,33.3,11,30.22,10.0,SE,10.4,19.6,N/A,,Clear,130,2013-06-28 18:55:00
1:15 PM,96.3,33.8,11,30.21,10.0,SE,13.8,19.6,N/A,,Clear,130,2013-06-28 19:15:00
1:35 PM,97.5,34.5,11,30.20,10.0,ESE,13.8,18.4,N/A,,Clear,120,2013-06-28 19:35:00
1:55 PM,97.2,34.7,11,30.19,10.0,East,13.8,19.6,N/A,,Clear,100,2013-06-28 19:55:00
2:15 PM,99.7,35.6,11,30.18,10.0,ESE,15.0,19.6,N/A,,Clear,120,2013-06-28 20:15:00
2:35 PM,98.8,35.2,11,30.18,10.0,SE,12.7,20.7,N/A,,Clear,130,2013-06-28 20:35:00
2:55 PM,97.0,34.9,11,30.16,10.0,East,9.2,17.3,N/A,,Clear,90,2013-06-28 20:55:00
3:15 PM,97.7,35.1,11,30.16,10.0,ESE,12.7,-,N/A,,Clear,110,2013-06-28 21:15:00
3:35 PM,97.0,35.1,11,30.15,10.0,South,6.9,16.1,N/A,,Clear,170,2013-06-28 21:35:00
3:55 PM,98.4,35.6,11,30.14,10.0,SSE,13.8,18.4,N/A,,Clear,150,2013-06-28 21:55:00
4:15 PM,98.4,35.8,11,30.14,10.0,SE,15.0,20.7,N/A,,Clear,130,2013-06-28 22:15:00
4:35 PM,99.0,37.4,12,30.13,10.0,SE,11.5,20.7,N/A,,Clear,140,2013-06-28 22:35:00
4:55 PM,98.6,37.0,12,30.12,10.0,ESE,13.8,18.4,N/A,,Clear,110,2013-06-28 22:55:00
5:15 PM,98.2,37.2,12,30.12,10.0,SE,12.7,21.9,N/A,,Clear,130,2013-06-28 23:15:00
5:35 PM,99.0,37.4,12,30.11,10.0,SE,15.0,20.7,N/A,,Clear,130,2013-06-28 23:35:00
5:55 PM,98.6,37.8,12,30.10,10.0,ESE,11.5,21.9,N/A,,Clear,120,2013-06-28 23:55:00
6:15 PM,96.4,37.8,13,30.10,10.0,ESE,12.7,25.3,N/A,,Clear,110,2013-06-29 00:15:00
6:35 PM,95.5,38.3,14,30.10,10.0,ESE,10.4,-,N/A,,Clear,110,2013-06-29 00:35:00
6:55 PM,96.1,37.8,13,30.10,10.0,East,9.2,-,N/A,,Clear,100,2013-06-29 00:55:00
7:15 PM,95.9,38.5,14,30.10,10.0,ESE,13.8,-,N/A,,Clear,120,2013-06-29 01:15:00
7:35 PM,94.6,39.2,15,30.11,10.0,ESE,12.7,-,N/A,,Clear,120,2013-06-29 01:35:00
7:55 PM,94.1,38.7,14,30.11,10.0,ESE,9.2,-,N/A,,Clear,120,2013-06-29 01:55:00
8:15 PM,93.0,38.5,15,30.12,10.0,ESE,9.2,-,N/A,,Clear,110,2013-06-29 02:15:00
8:35 PM,91.8,39.4,16,30.12,10.0,ESE,8.1,-,N/A,,Mostly Cloudy,120,2013-06-29 02:35:00
8:55 PM,90.3,41.0,18,30.12,10.0,ESE,4.6,-,N/A,,Scattered Clouds,110,2013-06-29 02:55:00
9:15 PM,88.5,40.5,18,30.12,10.0,ESE,3.5,-,N/A,,Clear,120,2013-06-29 03:15:00
9:35 PM,85.8,40.1,20,30.13,10.0,Calm,Calm,-,N/A,,Clear,0,2013-06-29 03:35:00
9:55 PM,84.4,39.7,21,30.14,10.0,Calm,Calm,-,N/A,,Clear,0,2013-06-29 03:55:00
10:15 PM,82.9,38.5,21,30.14,10.0,Calm,Calm,-,N/A,,Clear,0,2013-06-29 04:15:00
10:35 PM,84.0,39.4,21,30.14,10.0,SE,4.6,-,N/A,,Clear,130,2013-06-29 04:35:00
10:55 PM,86.0,39.2,19,30.14,10.0,Calm,Calm,-,N/A,,Clear,0,2013-06-29 04:55:00
11:15 PM,83.1,38.7,21,30.14,10.0,Calm,Calm,-,N/A,,Clear,0,2013-06-29 05:15:00
11:35 PM,82.2,38.7,21,30.15,10.0,Calm,Calm,-,N/A,,Clear,0,2013-06-29 05:35:00
11:55 PM,78.8,37.4,23,30.15,10.0,Calm,Calm,-,N/A,,Clear,0,2013-06-29 05:55:00